User: anonymous   Login
Location: Unspecified
(0.0000°N, 0.0000°E)
Time: 21:18:56
(UTC+00:00)
Language:

Tiros 1 despin weight - Orbit

View from above orbital plane
View from above orbital plane
View from above satellite
View from above satellite

Ground track
Ground track

The orbit data is extracted from the following two-line orbital elements,

1 00115U 60002D   17024.48577140  .00000050  00000-0  33330-4 0  9996
2 00115  48.1669 114.3433 0035256 187.3465 172.6935 14.82991646 28897
Epoch (UTC): 24 January 2017 11:39:30
Eccentricity: 0.0035256
inclination: 48.1669°
perigee height: 595 km
apogee height: 644 km
right ascension of ascending node: 114.3433°
argument of perigee: 187.3465°
revolutions per day: 14.82991646
mean anomaly at epoch: 172.6935°
orbit number at epoch: 2889

The dashed part of the orbit path shows where the satellite is in the earth's shadow,  

DLR